Weather History for KAMG - October, 2012

Change the Weather History Date:

Friday, October 5, 2012

  Actual Average Record
Temperature  
Mean Temperature 78 °F 72 °F  
Max Temperature 86 °F 82 °F 95 °F (1954)
Min Temperature 69 °F 61 °F 38 °F (1987)
Degree Days  
Heating Degree Days 0 0  
Month to date heating degree days 0 0  
Since 1 July heating degree days 0 2  
Cooling Degree Days 13 7  
Month to date cooling degree days 63 39  
Year to date cooling degree days 2550 2309  
Growing Degree Days 26 (Base 50)    
Moisture  
Dew Point 70 °F    
Average Humidity 81    
Maximum Humidity 100    
Minimum Humidity 61    
Precipitation  
Precipitation 0.00 in 0.11 in 1.03 in (2009)
Month to date precipitation 0.26 0.54  
Year to date precipitation 33.24 38.39  
Snow  
Snow 0.00 in 0.00 in 0.00 in ()
Month to date snowfall 0.0 0.0  
Since 1 July snowfall 0.0 0.0  
Since 1 September snowfall 0.0 0.0  
Snow Depth 0.00 in    
Sea Level Pressure  
Sea Level Pressure 30.12 in    
Wind  
Wind Speed 2 mph (North)    
Max Wind Speed 9 mph    
Max Gust Speed 12 mph    
Visibility 6 miles    
Events      
T = Trace of Precipitation, MM = Missing Value Source: NWS Daily Summary

Daily Weather History Graph

Daily Weather History Graph

Search for Another Location

Airport or City:

Trip Planner

Search our weather history database for the weather conditions in past years. The results will help you decide how hot, cold, wet, or windy it might be!

Date:

Astronomy

Oct. 05, 2012 Rise Set
Actual Time 7:26 AM EDT 7:09 PM EDT
Civil Twilight 7:02 AM EDT 7:33 PM EDT
Nautical Twilight 6:34 AM EDT 8:01 PM EDT
Astronomical Twilight 6:05 AM EDT 8:29 PM EDT
Moon 10:49 PM EDT (10/5) 12:16 PM EDT (10/5)
Length of Visible Light 12h 31m
Length of Day
11h 42m
Waning Gibbous, 74% of the Moon is Illuminated
Oct 5
Waning Gibbous
Oct 8
Last Quarter
Oct 15
New
Oct 21
First Quarter
Oct 29
Full

Hourly Weather History & Observations

Time (EDT) Temp. Heat Index Dew Point Humidity Pressure Visibility Wind Dir Wind Speed Gust Speed Precip Events Conditions
12:36 AM 69.8 °F - 69.8 °F 100% 30.18 in 2.5 mi Calm Calm - N/A   Clear
12:49 AM 71.6 °F - 69.8 °F 94% 30.18 in 4.0 mi Calm Calm - N/A   Clear
12:53 AM 71.1 °F - 69.1 °F 93% 30.17 in 4.0 mi Calm Calm - N/A   Clear
1:05 AM 71.6 °F - 69.8 °F 94% 30.17 in 2.0 mi Calm Calm - N/A   Clear
1:20 AM 71.6 °F - 69.8 °F 94% 30.17 in 4.0 mi Calm Calm - N/A   Clear
1:29 AM 71.6 °F - 69.8 °F 94% 30.16 in 2.0 mi Calm Calm - N/A   Clear
1:42 AM 71.6 °F - 69.8 °F 94% 30.16 in 3.0 mi North 3.5 mph - N/A   Partly Cloudy
1:53 AM 71.1 °F - 69.1 °F 93% 30.15 in 3.0 mi Calm Calm - N/A   Mostly Cloudy
2:53 AM 71.1 °F - 69.1 °F 93% 30.14 in 3.0 mi Calm Calm - N/A   Clear
2:57 AM 69.8 °F - 69.8 °F 100% 30.15 in 1.8 mi Calm Calm - N/A   Clear
3:08 AM 71.6 °F - 69.8 °F 94% 30.15 in 3.0 mi Calm Calm - N/A   Clear
3:27 AM 69.8 °F - 69.8 °F 100% 30.14 in 1.8 mi Calm Calm - N/A   Clear
3:37 AM 69.8 °F - 69.8 °F 100% 30.14 in 3.0 mi Calm Calm - N/A   Clear
4:53 AM 71.1 °F - 69.1 °F 93% 30.13 in 3.0 mi Calm Calm - N/A   Overcast
5:53 AM 72.0 °F - 69.1 °F 91% 30.14 in 4.0 mi North 3.5 mph - N/A   Overcast
6:50 AM 71.6 °F - 69.8 °F 94% 30.15 in 5.0 mi Calm Calm - N/A   Mostly Cloudy
6:53 AM 71.1 °F - 69.1 °F 93% 30.14 in 5.0 mi Calm Calm - N/A   Mostly Cloudy
7:08 AM 71.6 °F - 69.8 °F 94% 30.15 in 4.0 mi Calm Calm - N/A   Scattered Clouds
7:38 AM 71.6 °F - 69.8 °F 94% 30.14 in 4.0 mi Calm Calm - N/A   Mostly Cloudy
7:49 AM 71.6 °F - 69.8 °F 94% 30.14 in 3.0 mi North 4.6 mph - N/A   Scattered Clouds
7:53 AM 71.1 °F - 69.1 °F 93% 30.14 in 3.0 mi North 3.5 mph - N/A   Scattered Clouds
8:38 AM 71.6 °F - 69.8 °F 94% 30.15 in 4.0 mi Calm Calm - N/A   Scattered Clouds
8:53 AM 73.0 °F - 70.0 °F 90% 30.14 in 5.0 mi North 4.6 mph - N/A   Scattered Clouds
9:01 AM 73.4 °F - 69.8 °F 88% 30.15 in 5.0 mi NNW 3.5 mph - N/A   Mostly Cloudy
9:53 AM 75.0 °F - 71.1 °F 87% 30.14 in 9.0 mi North 5.8 mph - N/A   Overcast
10:53 AM 77.0 °F - 71.1 °F 82% 30.15 in 10.0 mi Variable 4.6 mph - N/A   Overcast
11:43 AM 80.6 °F 84.6 °F 71.6 °F 74% 30.15 in 10.0 mi Calm Calm - N/A   Mostly Cloudy
11:53 AM 81.0 °F 85.2 °F 72.0 °F 74% 30.14 in 10.0 mi Variable 4.6 mph - N/A   Mostly Cloudy
12:53 PM 82.9 °F 87.5 °F 71.1 °F 67% 30.12 in 10.0 mi Variable 3.5 mph - N/A   Overcast
1:30 PM 82.4 °F 86.3 °F 69.8 °F 66% 30.11 in 10.0 mi Variable 3.5 mph - N/A   Mostly Cloudy
1:53 PM 82.9 °F 87.0 °F 70.0 °F 65% 30.09 in 10.0 mi East 3.5 mph - N/A   Mostly Cloudy
2:53 PM 84.0 °F 87.8 °F 69.1 °F 61% 30.07 in 10.0 mi Calm Calm - N/A   Scattered Clouds
3:53 PM 82.9 °F 87.5 °F 71.1 °F 67% 30.03 in 10.0 mi Variable 3.5 mph - N/A   Overcast
4:53 PM 82.0 °F 86.3 °F 71.1 °F 69% 30.02 in 10.0 mi Calm Calm - N/A   Mostly Cloudy
5:53 PM 81.0 °F 84.9 °F 71.1 °F 72% 30.02 in 10.0 mi Calm Calm - N/A   Clear
6:53 PM 79.0 °F - 71.1 °F 77% 30.02 in 10.0 mi NNW 3.5 mph - N/A   Clear
7:53 PM 75.9 °F - 72.0 °F 87% 30.03 in 10.0 mi Calm Calm - N/A   Scattered Clouds
8:53 PM 75.0 °F - 70.0 °F 84% 30.04 in 10.0 mi SSE 4.6 mph - N/A   Clear
9:53 PM 73.0 °F - 69.1 °F 87% 30.04 in 10.0 mi Calm Calm - N/A   Partly Cloudy
10:53 PM 71.1 °F - 69.1 °F 93% 30.04 in 9.0 mi Calm Calm - N/A   Clear
11:53 PM 70.0 °F - 68.0 °F 93% 30.03 in 5.0 mi Calm Calm - N/A   Clear